COSMOS 1275 DEB

Satellite information

Favourite Embed

Satellite Type and Status

DEBRISIN ORBIT

Key statistics

Satellite COSMOS 1275 DEB at a glance.

Uptime

16263

Days in orbit

Revolutions

≈ 14.4

Per day

Orbit

LEO

Low Earth Orbit

Inclination

82.9

Latest

Satellite identification and parameters

Extended collection of information and parameters for COSMOS 1275 DEB.

Object identification

Identified? True

Debris? True

Object name: COSMOS 1275 DEB

International designator: 1981-053PL

Object number (NORAD): 42100

Object ID (CCSDS): 42100

Country: COMMONWEALTH OF INDEPENDENT STATES (CIS)

Current information (Y/N): Y

RCS size: SMALL

Orbital parameters

Period: 99.978 minutes

Inclination: 82.8594 deg

SMA: 7135.573 km

Apoapsis: 769.538 km

Periapsis: 745.338 km

RAAN: 31.2974 deg

Eccentricy: 0.00169574

Argument of periapsis: 350.2095 deg

Mean anomaly: 9.8764 deg

Mean motion: 14.40321514 rev/day

Mean motion (dot): 0.00008165 rev/day2

B* drag term: 0.0025656741 1/REarth

Two-line elements (TLE)

Creation date: Dec. 10, 2025, 7:58 p.m.

Reference frame: TEME

Reference center: EARTH

Epoch: Dec. 10, 2025, 9:35 a.m. UTC

TLE line 0: 0 COSMOS 1275 DEB

TLE line 1: 1 42100U 81053PL 25344.39960556 .00008165 00000-0 25657-2 0 9992

TLE line 2: 2 42100 82.8594 31.2974 0016957 350.2095 9.8764 14.40321514625623

Live tracking on map

Real-time ground track for satellite COSMOS 1275 DEB.

In-orbit conjunctions

A list of the most updated potential collisions computed for object COSMOS 1275 DEB.

Target Orbit TCA Probability of collision Miss distance Type
DELTA 1 DEB SSO 2025-02-17 08:20:34 0.0001145014 183.0 (m) DEBRIS
THOR BURNER 2 R/B SSO 2024-10-05 23:20:35 0.0001164382 123.0 (m) ROCKET BODY

Associated space launch

Navigation satellite providing location information for the Tsiklon-B navigation system

COSMOS 1275 DEB was lifted into orbit during the mission ‘Kosmos-3M | Parus 27’, on board a Kosmos-3M space rocket.

The launch took place on June 4, 1981, 3:41 p.m. from 132/2.

For more information about the launch, click the button.

Launch to space Kosmos-3M | Parus 27
Kosmos-3M | Parus 27

Agency: N/A

Status: Launch Successful

Launch date: June 4, 1981, 3:41 p.m. UTC

Rocket: Kosmos-3M

Launch pad: 132/2

Location: Plesetsk Cosmodrome, Russian Federation

...

Latest news about this satellite

There are no fresh news available about this satellite. Check back as we update our databases every day.


Newsletter sign-up

Weekly statistics, charts and insights to help you stay on top of the space industry.